Location: Navalespino
(40.5894°N, 4.2660°W)
Time: 17:44:55
(UTC+00:00)

IRS-1C Rocket - Pass Details

Date: 18 April 2024
Orbit: 799 x 806 km, 98.8° (Epoch: 23 May)

Event Time Altitude Azimuth Distance (km) Brightness Sun altitude
Exits shadow 21:23:39 49° 192° (SSW) 1,033 4.4 -24.6°
Maximum altitude 21:25:01 70° 257° (WSW) 856 4.2 -24.8°
Drops below altitude 10° 21:30:18 10° 342° (NNW) 2,395 7.4 -25.5°
Sets 21:32:40 0° 344° (NNW) 3,329 8.2 -25.9°
